Regional Weather Roundup
Issued by NWS

Home | Current Version | Previous Version | Graphics & Text | Print | Product List | Glossary On
Versions: 1 2 3 4 5 6 7 8 9 10 11 12 13 14 15 16 17 18 19 20 21 22 23 24 25 26 27 28 29 30 31 32 33 34 35 36 37 38 39 40 41 42 43 44 45 46 47 48 49 50
000
ASUS45 KBOU 181107
RWRCO

WEATHER ROUNDUP FOR COLORADO
NATIONAL WEATHER SERVICE DENVER/BOULDER CO
500 AM MDT THU SEP 18 2014

NOTE: "FAIR" INDICATES FEW OR NO CLOUDS BELOW 12000 FEET WITH NO
SIGNIFICANT WEATHER AND/OR OBSTRUCTIONS TO VISIBILITY.

COZ001>005-013-030-031-181200-
...NORTHWEST COLORADO...

CITY           SKY/WX    TMP DP  RH WIND       PRES   REMARKS
CRAIG          CLEAR     40  37  89 W3        30.12S
HAYDEN         CLEAR     50  37  62 E13       30.14S
MEEKER         CLEAR     45  38  76 CALM      30.14R
MOUNT WERNER   NOT AVBL
STEAMBOAT SPGS CLEAR     45  38  78 CALM      30.17F
WALDEN         CLEAR     34  30  86 SE6       30.27S WCI  29
$$

COZ006>008-011-181200-
...WEST CENTRAL VALLEYS...

CITY           SKY/WX    TMP DP  RH WIND       PRES   REMARKS
GRAND JUNCTION CLEAR     63  40  42 E9        30.01F
MONTROSE       CLEAR     54  43  66 SE8       30.11S
EAGLE          CLEAR     45  37  76 CALM      30.22S
RIFLE          CLEAR     50  40  68 CALM      30.10R
DELTA          CLEAR     59  42  53 NE7       30.07S
NUCLA          CLEAR     52  43  71 E9        30.15S
$$

COZ017>023-064>068-181200-
...SOUTHWEST COLORADO...

CITY           SKY/WX    TMP DP  RH WIND       PRES   REMARKS
DURANGO        CLEAR     46  44  93 N5        30.16F
CORTEZ         CLEAR     46  44  93 E6        30.12S
PAGOSA SPRINGS CLEAR     44  42  91 W3        30.23S
TELLURIDE      NOT AVBL
WOLF CREEK PAS CLEAR     43  32  65 NE6       30.49F
$$

COZ009-010-012-014-032>034-037-058>063-181200-
...CENTRAL COLORADO...

CITY           SKY/WX    TMP DP  RH WIND       PRES   REMARKS
ASPEN          CLEAR     44  35  70 CALM      30.23S
BUENA VISTA    PTCLDY    47  35  62 NW6       30.28S
COPPER MTN     CLEAR     52  30  43 S16       30.52F
BERTHOUD PASS  FAIR      43  41  93 SW5       30.57S
COTTONWOOD PAS PTCLDY    55  32  41 W9        30.38F
GUNNISON       CLEAR     43  34  70 SE3       30.29S
KREMMLING      CLEAR     37  34  87 CALM      30.27R
LEADVILLE      CLEAR     35  30  82 CALM      30.38F
MONARCH PASS   CLEAR     46  32  57 NE3       30.62F
SALIDA         PTCLDY    52  37  54 W5        30.32F
SUNLIGHT       CLEAR     52  32  46 CALM      30.44S
WILKERSON PASS NOT AVBL
$$

COZ069>075-181200-
...SAN LUIS VALLEY/SANGRE DE CRISTO MOUNTAINS...

CITY           SKY/WX    TMP DP  RH WIND       PRES   REMARKS
ALAMOSA        PTCLDY    37  34  89 N5        30.23S
LA VETA PASS   NOT AVBL
SAGUACHE       PTCLDY    46  34  61 N12       30.26S
$$

COZ035-036-038>040-181200-
...NORTHERN COLORADO FRONT RANGE...

CITY           SKY/WX    TMP DP  RH WIND       PRES   REMARKS
DENVER INTL AP PTCLDY    60  42  51 SW12      30.04S
DMNS CITY PARK   N/A     59  43  53 S6        30.04S
AURORA         PTCLDY    57  43  59 S8        30.06F
FRONT RANGE AP CLEAR     63  43  48 SW12      30.05S
ERIE MUNI ARPT CLEAR     49  44  84 CALM      30.03S
BOULDER MUN AP CLEAR     55  43  62 SW3       30.03F
CENTENNIAL     PTCLDY    53  42  66 SE3       30.07F
BROOMFIELD     CLEAR     59  37  44 W5        30.06S
FORT COLLINS   CLEAR     54  45  71 CALM      30.03F
LONGMONT       CLEAR     50  43  78 CALM      30.04S
$$

COZ041-046-047-076>085-087-088-181200-
...PIKES PEAK/PALMER DIVIDE AND SOUTHERN FOOTHILLS...

CITY           SKY/WX    TMP DP  RH WIND       PRES   REMARKS
COLO. SPRINGS  CLEAR     57  39  51 N6        30.11S
A. F. ACADEMY  CLEAR     50  39  66 N10       30.13F
ELLICOTT       NOT AVBL
FALCON         CLEAR     57  39  51 NW6       30.16S
FORT CARSON    CLEAR     58  39  49 NW12      30.08S
LIMON          CLEAR     46  40  79 NW6       30.05F
MONUMENT HILL  CLEAR     46  37  71 SW7       30.15F
TRINIDAD       CLEAR     55  37  50 W15       30.08F
$$

COZ042>045-048>051-090-091-181200-
...NORTHEAST COLORADO...

CITY           SKY/WX    TMP DP  RH WIND       PRES   REMARKS
GREELEY ARPT   CLEAR     46  37  71 N5        30.02S
AKRON          CLEAR     58  44  60 W8        29.99S
BURLINGTON     FOG       57  56  96 W5        29.98S VSB<1/4
WRAY           FOG      N/A N/A N/A CALM      29.96S VSB 1/2
STERLING       CLEAR     52  50  93 S3        29.95F
HOLYOKE        CLOUDY    64  63  94 S5        29.96F FOG
FORT MORGAN    CLEAR     50  45  82 W9        30.00S
$$

COZ086-089-092>099-181200-
...SOUTHEAST COLORADO...

CITY           SKY/WX    TMP DP  RH WIND       PRES   REMARKS
PUEBLO         CLEAR     56  41  57 W5        30.00F
LA JUNTA       CLEAR     56  43  61 SW7       29.98S
LAMAR          CLEAR     49  46  90 W5        29.94S
SPRINGFIELD      N/A     56  53  90 SW8       29.99S
$$



USA.gov is the U.S. government's official web portal to all federal, state and local government web resources and services.